SCP
0 0 0 0 0 0 0 0 0 0 0 0 0 0 0 0 0 0 0 0 0 0 0 0 0 0 0 0 0 0 0 0 0 0 0 0 0 0 0 0 0 0 0
0 0 0 0 0 0 0 0 0 0 0 0 0 0 0 0 0 0 0 0 0 0 0 0 0 0 0 0 0 0 0 0 0 0 0 0 0 0 0 0 0 0 0
0 0 0 0 0 0 0 0 0 0 0 0 0 0 0 0 0 0 0 0 0 0 0 0 0 0 0 0 0 0 0 0 0 0 0 0 0 0 0 0 0 0 0
0 0 0 0 0 0 0 0 0 0 0 0 0 0 0 0 0 0 0 0 0 0 0 0 0 0 0 0 0 0 0 0 0 0 0 0 0 0 0 0 0 0 0
0 0 0 0 0 0 0 0 0 0 0 0 0 0 0 0 0 0 0 0 0 0 0 0 0 0 0 0 0 0 0 0 0 0 0 0 0 0 0 0 0 0 0
0 0 0 0 0 0 0 0 0 0 0 0 0 0 0 0 0 0 0 0 0 0 0 0 0 0 0 0 0 0 0 0 0 0 0 0 0 0 0 0 0 0 0
0 0 0 0 0 0 0 0 0 0 0 0 0 0 0 0 0 0 0 0 0 0 0 0 0 0 0 0 0 0 0 0 0 0 0 0 0 0 0 0 0 0 0
0 0 0 0 0 0 0 0 0 0 0 0 0 0 0 0 0 0 0 0 0 0 0 0 0 0 0 0 0 0 0 0 0 0 0 0 0 0 0 0 0 0 0
0 0 0 0 0 0 0 0 0 0 0 0 0 0 0 0 0 0 0 0 0 0 0 0 0 0 0 0 0 0 0 0 0 0 0 0 0 0 0 0 0 0 0
0 0 0 0 0 0 0 0 0 0 0 0 0 0 0 0 0 0 0 0 0 0 0 0 0 0 0 0 0 0 0 0 0 0 0 0 0 0 0 0 0 0 0
0 0 0 0 0 0 0 0 0 0 0 0 0 0 0 0 0 0 0 0 0 0 0 0 0 0 0 0 0 0 0 0 0 0 0 0 0 0 0 0 0 0 1
0 0 0 0 0 0 0 0 0 0 0 0 0 0 0 0 0 0 0 0 0 0 0 0 0 0 0 0 0 0 0 0 0 0 0 0 0 0 0 0 1 1 1
0 0 0 0 0 0 0 0 0 0 0 0 0 0 0 0 0 0 0 0 0 0 0 0 0 0 0 0 0 0 0 0 0 0 0 0 0 0 0 0 0 0 0
0 0 0 0 0 0 0 0 0 0 0 0 0 0 0 0 0 0 0 0 0 0 0 0 0 0 0 0 0 0 0 0 0 0 0 0 0 0 0 0 0 0 0
0 0 0 0 0 0 0 0 0 0 0 0 0 0 0 0 0 0 0 0 0 0 0 0 0 0 0 0 0 0 0 0 0 0 0 0 0 0 0 0 0 0 0
0 0 0 0 0 0 0 0 0 0 0 0 0 0 0 0 0 0 0 0 0 0 0 0 0 0 0 0 0 0 0 0 0 0 0 0 0 0 0 0 0 0 0
0 0 0 0 0 0 0 0 0 0 0 0 0 0 0 0 0 0 0 0 0 0 0 0 0 0 0 0 0 0 0 0 0 0 0 0 0 0 0 0 0 0 0
0 0 0 0 0 0 0 0 0 0 0 0 0 0 0 0 0 0 0 0 0 0 0 0 0 0 0 0 0 0 0 0 0 0 0 0 0 0 0 0 0 0 0
0 0 0 0 0 0 0 0 0 0 0 0 0 0 0 0 0 0 0 0 0 0 0 0 0 0 0 0 0 0 0 0 0 0 0 0 0 0 0 0 0 0 0
0 0 0 0 0 0 0 0 0 0 0 0 0 0 0 0 0 0 0 0 0 0 0 0 0 0 0 0 0 0 0 0 0 0 0 0 0 0 0 0 0 0 0
0 0 0 0 0 0 0 0 0 0 0 0 0 0 0 0 0 0 0 0 0 0 0 0 0 0 0 0 0 0 0 0 0 0 0 0 0 0 0 0 0 0 0
0 0 0 0 0 0 0 0 0 0 0 0 0 0 0 0 0 0 0 0 0 0 0 0 0 0 0 0 0 0 0 0 0 0 0 0 0 0 0 0 0 0 0
0 0 0 0 0 0 0 0 0 0 0 0 0 0 0 0 0 0 0 0 0 0 0 0 0 0 0 0 0 0 0 0 0 0 0 0 0 0 0 0 0 0 0
0 0 0 0 0 0 0 0 0 0 0 0 0 0 0 0 0 0 0 0 0 0 0 0 0 0 0 0 0 0 0 0 0 0 0 0 0 0 0 0 0 0 0
0 0 0 0 0 0 0 0 0 0 0 0 0 0 0 0 0 0 0 0 0 0 0 0 0 0 0 0 0 0 0 0 0 0 0 0 0 0 0 0 0 0 0
0 0 0 0 0 0 0 0 0 0 0 0 0 0 0 0 0 0 0 0 0 0 0 0 0 0 0 0 0 0 0 0 0 0 0 0 0 0 0 0 0 0 0
Wind_Speed
5 4 3 3 2 2 2 2 2 3 3 3 3 4 4 3 2 1 5 12 12 12 12 13 13 13 13 12 12 12 13 13 13 14 14 15 15 15 15 15 15 14 14
5 5 4 3 3 3 3 2 3 3 2 3 3 3 3 1 1 1 3 7 13 13 13 13 13 13 13 13 13 13 13 14 15 15 15 16 16 16 16 16 17 17 17
6 5 4 4 4 4 4 3 4 3 3 2 2 3 2 1 1 3 3 3 5 10 12 13 14 13 13 13 13 14 14 15 15 16 16 17 17 17 17 17 18 18 18
8 6 5 5 5 4 3 3 2 3 3 3 3 2 2 1 2 3 3 3 3 3 6 11 12 12 13 13 14 15 15 16 16 16 17 17 18 18 18 19 19 19 20
9 7 6 5 5 4 4 3 3 3 3 4 3 3 2 2 3 3 3 3 3 3 4 6 9 10 12 13 14 15 16 16 17 17 18 18 19 19 20 20 20 21 21
9 9 7 7 5 4 4 4 4 4 4 4 4 2 1 1 3 2 2 1 0 3 5 7 7 7 10 13 14 15 16 17 18 18 19 20 20 21 21 22 22 23 23
9 9 7 7 5 4 4 4 3 4 5 5 4 2 2 2 3 3 2 3 3 4 6 8 8 8 7 12 12 14 16 18 19 20 21 21 22 23 23 24 24 25 25
9 8 8 7 6 5 5 5 4 3 4 5 4 3 2 2 2 3 3 4 4 5 7 9 10 10 9 7 9 15 16 18 20 22 22 23 24 25 25 26 27 27 27
9 9 9 7 6 5 5 5 4 4 3 3 4 4 4 3 5 4 4 4 5 6 8 9 11 11 10 8 9 11 16 19 21 23 24 25 26 27 27 28 28 28 29
9 9 9 8 7 5 6 5 4 3 3 2 2 2 2 3 5 5 4 4 6 8 9 9 11 11 10 9 10 15 17 19 23 25 27 27 28 28 29 29 30 30 30
9 8 9 8 7 6 6 5 4 3 2 2 2 2 2 3 5 5 7 8 7 7 8 10 10 9 10 10 10 13 18 22 25 27 27 28 28 29 30 30 31 31 31
7 8 8 8 7 6 5 5 4 3 2 1 1 2 3 3 4 5 8 10 11 9 11 9 9 9 9 11 13 17 21 25 27 28 28 29 30 30 31 31 31 31 32
8 9 8 7 6 6 5 4 3 2 1 1 2 3 3 4 5 6 9 11 13 11 10 7 7 9 9 10 11 19 23 27 28 29 30 31 31 31 31 31 32 32 32
8 9 8 8 7 6 5 3 2 1 1 3 3 4 4 5 5 6 8 10 13 10 10 12 10 9 8 10 14 22 19 25 27 29 31 32 32 32 32 31 32 32 32
9 10 9 8 7 6 4 2 1 1 2 3 4 5 5 5 5 6 7 8 10 14 14 12 8 9 11 12 16 16 18 23 28 30 31 32 32 32 32 32 32 32 32
10 10 9 8 6 5 3 2 1 1 3 4 4 6 6 6 6 7 7 8 10 13 16 11 13 14 15 13 18 18 18 26 27 28 29 30 31 32 32 32 32 32 32
11 9 8 7 6 4 2 1 2 3 5 5 5 6 7 8 7 7 8 9 10 12 16 15 13 15 18 18 16 16 16 17 16 25 28 30 31 31 32 32 32 32 32
10 8 7 6 5 2 1 2 3 4 5 6 7 8 8 7 10 9 9 10 11 12 15 19 16 15 19 19 18 18 15 14 15 22 28 29 30 31 31 31 31 32 32
10 8 6 5 3 1 1 3 4 6 6 7 8 8 9 10 11 10 11 12 11 12 13 16 17 15 15 15 18 17 17 15 15 17 23 25 27 29 30 31 32 32 31
9 7 6 4 2 1 2 4 5 7 8 8 8 9 10 11 12 13 12 13 13 14 14 15 15 15 15 16 15 15 15 13 13 14 18 19 23 27 28 30 30 30 30
8 6 5 3 1 1 2 5 7 8 9 9 9 9 10 12 15 14 12 14 14 13 14 14 15 15 15 15 14 14 15 15 15 14 14 13 15 15 17 22 25 26 28
7 5 3 1 1 1 5 8 9 9 9 9 10 10 11 12 14 18 20 21 20 18 17 15 15 16 19 17 15 14 15 16 16 12 14 16 14 16 15 14 22 29 30
6 4 2 1 2 3 6 9 10 10 10 9 11 11 10 11 16 13 17 21 21 22 22 18 18 18 19 17 18 19 17 17 17 16 16 17 15 16 14 15 27 30 31
4 2 1 1 3 3 7 10 12 10 9 10 11 12 13 13 13 16 17 17 17 17 18 15 15 17 17 18 17 17 18 18 17 14 14 17 16 16 15 15 24 29 29
3 1 1 2 4 4 6 10 12 9 8 11 11 12 13 14 18 21 18 17 18 16 16 19 22 24 27 27 21 13 13 13 15 14 12 12 13 15 15 15 16 22 25
2 0 1 2 4 5 7 10 13 8 9 10 11 12 15 16 20 23 18 17 18 16 15 17 18 18 17 17 19 13 11 12 13 11 8 8 11 12 12 9 11 13 16
Wind_Direction
176 162 156 141 125 107 112 92 71 61 39 30 24 10 358 356 10 69 84 56 54 55 48 38 29 19 12 5 360 355 350 346 342 339 335 331 328 325 322 319 315 312 307
170 160 150 130 115 104 89 86 75 66 44 21 11 6 352 353 55 107 105 84 62 54 46 35 24 13 3 355 348 344 340 335 331 328 324 321 317 315 312 310 307 304 300
164 152 137 129 117 111 107 93 82 55 40 13 3 359 345 323 151 135 118 94 84 63 47 32 19 7 357 349 342 336 332 327 324 321 318 314 311 308 306 304 302 299 296
153 141 130 122 120 114 102 84 60 50 31 356 346 350 320 219 182 143 132 103 66 46 47 27 10 0 350 341 334 329 325 321 318 315 312 309 306 304 301 299 298 297 294
144 132 120 119 121 107 94 83 59 33 20 359 340 335 322 196 161 170 148 111 69 24 1 5 352 348 340 333 328 325 321 318 315 312 309 306 304 301 298 296 293 291 290
133 123 117 118 114 109 103 94 82 54 22 349 328 338 28 168 192 178 199 190 306 335 339 344 337 334 327 324 323 321 320 318 314 311 308 305 302 299 297 294 292 289 287
127 121 119 116 111 105 102 95 82 59 33 356 333 327 178 191 214 198 253 266 275 302 318 335 335 327 317 318 314 317 318 316 313 310 306 303 301 298 296 293 291 288 286
124 121 122 117 114 111 102 85 73 62 47 19 354 328 313 200 175 215 271 273 291 304 320 328 325 318 314 310 310 311 312 313 312 308 304 302 300 297 294 291 288 286 284
118 119 119 116 115 111 101 86 70 59 52 46 21 357 331 325 321 270 271 283 297 310 317 316 312 312 307 303 305 308 310 310 308 306 304 302 299 295 292 290 288 286 284
116 119 117 116 115 112 110 97 79 67 46 37 50 20 344 325 301 305 278 275 294 301 302 304 306 303 299 301 300 301 304 306 307 305 302 299 296 295 293 291 289 287 285
116 120 119 119 116 113 109 104 94 71 54 26 2 337 296 278 269 284 294 303 301 296 300 300 296 294 297 300 301 301 307 307 305 302 300 298 297 296 294 292 291 289 288
123 125 126 123 120 117 115 109 100 89 59 46 307 296 300 296 300 291 292 301 303 303 301 292 287 290 297 302 301 306 307 305 303 301 300 299 297 296 295 295 293 291 289
138 140 135 129 123 121 118 113 107 108 137 267 284 292 284 281 290 286 288 296 298 299 293 282 278 286 294 297 299 305 303 300 300 300 299 299 299 298 297 295 293 291 289
137 139 133 129 128 126 124 124 138 169 227 260 280 285 283 283 283 283 289 300 301 295 292 296 301 297 297 295 293 299 294 295 296 297 298 298 298 298 296 294 292 290 288
134 137 135 133 129 126 125 141 171 235 261 279 288 287 285 286 284 284 285 288 294 299 302 303 300 303 300 296 295 293 292 293 295 295 295 295 295 294 294 293 291 289 287
136 138 138 134 132 132 143 180 229 265 279 286 292 292 294 291 291 288 285 285 283 287 291 297 302 301 303 296 294 294 293 295 292 291 292 292 293 293 293 291 290 288 286
138 138 137 136 135 139 158 220 268 276 285 292 292 294 296 298 295 292 290 287 285 286 289 296 299 302 301 300 299 297 295 294 292 293 294 294 294 293 292 291 290 288 286
134 134 134 134 132 142 202 271 284 286 292 297 299 299 298 300 296 295 293 290 289 288 290 296 299 301 301 302 300 299 298 295 293 295 295 295 293 292 291 290 289 287 286
131 132 134 132 135 153 258 285 291 294 294 295 298 299 300 301 300 299 298 293 291 290 289 292 297 299 299 301 303 301 300 298 298 296 296 294 292 292 291 291 290 288 287
131 131 129 127 134 211 272 289 294 294 295 295 295 294 296 298 301 302 298 296 295 296 294 292 294 299 300 303 304 305 305 304 301 300 294 292 293 294 292 290 289 287 285
125 127 130 135 166 264 297 308 304 300 299 299 297 295 294 297 297 297 296 298 300 296 295 294 296 300 302 306 306 308 305 304 300 298 298 299 298 294 292 289 287 285 284
127 133 136 148 263 309 317 308 312 306 301 299 300 301 300 297 298 300 300 299 294 292 294 296 297 297 300 302 306 305 303 303 303 304 302 299 297 292 290 289 289 290 289
134 140 144 232 300 323 314 315 316 307 301 300 301 302 302 301 304 301 299 296 293 291 290 292 293 293 297 301 302 301 299 298 297 300 300 295 296 293 293 291 293 292 292
138 143 154 304 304 317 321 317 317 306 301 298 300 302 303 303 304 305 302 299 296 295 293 292 289 290 291 293 294 295 296 294 290 288 291 293 297 296 298 296 294 292 290
140 147 257 298 305 314 321 318 322 312 301 302 302 300 300 299 303 306 305 303 302 299 298 295 290 288 289 292 293 293 293 294 295 296 295 287 293 302 298 290 289 292 294
137 196 271 292 301 311 319 321 324 310 307 307 304 302 300 304 308 310 309 306 304 306 307 302 297 294 292 291 291 285 286 289 294 296 293 297 298 308 301 287 294 299 298